Weather History for Park Rapids, MN

Change the Weather History Date:

Tuesday, November 26, 2013

  Actual Average Record
Temperature  
Mean Temperature 10 °F -  
Max Temperature 19 °F 29 °F 50 °F (1962)
Min Temperature 1 °F 12 °F -19 °F (1977)
Degree Days  
Heating Degree Days 55    
Moisture  
Dew Point 5 °F    
Average Humidity 77    
Maximum Humidity 91    
Minimum Humidity 62    
Precipitation  
Precipitation 0.00 in - - ()
Sea Level Pressure  
Sea Level Pressure 30.29 in    
Wind  
Wind Speed 16 mph (NW)    
Max Wind Speed 22 mph    
Max Gust Speed 31 mph    
Visibility 9 miles    
Events Snow    
Averages and records for this station are not official NWS values.
T = Trace of Precipitation, MM = Missing Value Source: NWS Daily Summary

Daily Weather History Graph

Daily Weather History Graph

Search for Another Location

Airport:

Trip Planner

Search our weather history database for the weather conditions in past years. The results will help you decide how hot, cold, wet, or windy it might be!

Date:

Astronomy

Nov. 26, 2013 Rise Set
Actual Time 7:38 AM CST 4:36 PM CST
Civil Twilight 7:04 AM CST 5:10 PM CST
Nautical Twilight 6:27 AM CST 5:47 PM CST
Astronomical Twilight 5:50 AM CST 6:24 PM CST
Moon 12:18 AM CST (11/26) 1:05 PM CST (11/26)
Length of Visible Light 10h 05m
Length of Day
8h 57m
Last Quarter, 41% of the Moon is Illuminated
Nov 26
Last Quarter
Dec 2
New
Dec 9
First Quarter
Dec 17
Full
Dec 25
Last Quarter

Hourly Weather History & Observations

Time (CST) Temp. Windchill Dew Point Humidity Pressure Visibility Wind Dir Wind Speed Gust Speed Precip Events Conditions
12:02 AM 19.9 °F 3.9 °F 15.1 °F 81% 30.05 in 5.0 mi WNW 20.7 mph 25.3 mph 0.00 in Snow Light Snow
12:36 AM 19.9 °F 3.5 °F 15.1 °F 81% 30.06 in 6.0 mi WNW 21.9 mph - 0.00 in Snow Light Snow
12:53 AM 19.0 °F 4.0 °F 14.0 °F 81% 30.12 in 7.0 mi NW 17.3 mph 27.6 mph 0.00 in Snow Light Snow
1:29 AM 19.0 °F 2.7 °F 12.9 °F 77% 30.07 in 2.5 mi NW 20.7 mph 31.1 mph 0.00 in Snow Light Snow
1:48 AM 15.8 °F -0.6 °F 8.6 °F 73% 30.08 in 9.0 mi NW 18.4 mph 29.9 mph 0.00 in   Mostly Cloudy
1:53 AM 16.0 °F 0.1 °F 8.1 °F 71% 30.16 in 10.0 mi NW 17.3 mph 29.9 mph 0.00 in Snow Light Snow
2:24 AM 12.9 °F -5.3 °F 5.0 °F 71% 30.10 in 10.0 mi NW 20.7 mph 25.3 mph 0.00 in   Scattered Clouds
2:53 AM 12.9 °F -4.4 °F 3.9 °F 67% 30.20 in 10.0 mi NW 18.4 mph 29.9 mph 0.00 in   Mostly Cloudy
3:50 AM 10.4 °F -5.4 °F 3.2 °F 73% 30.12 in 10.0 mi NW 13.8 mph - N/A   Scattered Clouds
3:53 AM 10.9 °F -6.5 °F 3.9 °F 73% 30.21 in 10.0 mi NW 17.3 mph - N/A   Partly Cloudy
4:25 AM 10.9 °F -5.4 °F 5.0 °F 77% 30.13 in 10.0 mi NW 15.0 mph - N/A   Mostly Cloudy
4:53 AM 10.9 °F -5.9 °F 5.0 °F 77% 30.22 in 10.0 mi WNW 16.1 mph - N/A   Overcast
5:53 AM 10.0 °F -6.5 °F 5.0 °F 80% 30.24 in 10.0 mi WNW 15.0 mph - N/A   Overcast
6:53 AM 10.0 °F -5.9 °F 5.0 °F 80% 30.25 in 7.0 mi NW 13.8 mph - N/A   Overcast
7:53 AM 10.9 °F -7.0 °F 5.0 °F 77% 30.27 in 4.0 mi NW 18.4 mph 24.2 mph 0.00 in   Haze
8:53 AM 10.9 °F -7.9 °F 3.9 °F 73% 30.30 in 6.0 mi NNW 20.7 mph 24.2 mph N/A   Haze
9:53 AM 12.0 °F -4.0 °F 5.0 °F 73% 30.33 in 10.0 mi NNW 15.0 mph 24.2 mph N/A   Overcast
10:53 AM 14.0 °F -1.4 °F 6.1 °F 71% 30.35 in 9.0 mi NNW 15.0 mph 20.7 mph N/A   Overcast
11:53 AM 14.0 °F -2.5 °F 5.0 °F 67% 30.36 in 10.0 mi NNW 17.3 mph 26.5 mph 0.00 in   Overcast
12:53 PM 15.1 °F -1.1 °F 5.0 °F 64% 30.35 in 10.0 mi NNW 17.3 mph 25.3 mph N/A   Overcast
1:53 PM 16.0 °F 0.6 °F 5.0 °F 62% 30.36 in 10.0 mi NW 16.1 mph - N/A   Overcast
2:53 PM 15.1 °F -2.0 °F 5.0 °F 64% 30.38 in 10.0 mi NNW 19.6 mph 25.3 mph N/A   Overcast
3:53 PM 14.0 °F -2.0 °F 5.0 °F 67% 30.40 in 10.0 mi NNW 16.1 mph - N/A   Overcast
4:24 PM 12.9 °F -2.2 °F 3.9 °F 67% 30.32 in 10.0 mi NNW 13.8 mph - N/A   Partly Cloudy
4:53 PM 12.0 °F -3.4 °F 3.9 °F 70% 30.43 in 10.0 mi NNW 13.8 mph - N/A   Clear
5:53 PM 10.0 °F -2.9 °F 3.9 °F 76% 30.45 in 10.0 mi NW 9.2 mph - N/A   Clear
6:53 PM 8.1 °F -2.0 °F 3.9 °F 83% 30.46 in 10.0 mi NW 5.8 mph - N/A   Clear
7:53 PM 5.0 °F -6.9 °F 1.9 °F 87% 30.46 in 10.0 mi WNW 6.9 mph - N/A   Clear
8:53 PM 3.0 °F -9.3 °F 1.0 °F 91% 30.46 in 10.0 mi NNW 6.9 mph - N/A   Clear
9:39 PM 3.0 °F -8.0 °F -0.9 °F 84% 30.36 in 10.0 mi NW 5.8 mph - N/A   Mostly Cloudy
9:53 PM 3.9 °F -5.3 °F -0.0 °F 84% 30.47 in 10.0 mi NW 4.6 mph - N/A   Overcast
10:01 PM 3.9 °F -5.3 °F 1.0 °F 88% 30.36 in 10.0 mi NW 4.6 mph - N/A   Overcast
10:41 PM 3.0 °F - -0.0 °F 87% 30.35 in 10.0 mi Calm Calm - N/A   Scattered Clouds
10:53 PM 3.9 °F -5.3 °F -0.0 °F 84% 30.47 in 10.0 mi WNW 4.6 mph - N/A   Partly Cloudy
11:37 PM 1.0 °F -8.7 °F -2.0 °F 87% 30.36 in 10.0 mi WNW 4.6 mph - N/A   Mostly Cloudy
11:53 PM 1.9 °F -7.6 °F -0.9 °F 88% 30.48 in 10.0 mi WNW 4.6 mph - N/A   Mostly Cloudy